GEFSMW_con_probscp_030.txt.gz
Probability
81 71 57 52 59 76 89 94 94 92 90 89 87 86 87 89 90 87 83 81 82 81 77 74 70 65 60 50 42 41 37 32 28 20 9 3 5 19 31 29 22 16 14
80 71 61 56 58 69 81 89 91 92 91 90 89 88 89 89 89 83 76 71 68 65 62 62 62 61 58 51 44 39 31 24 20 15 8 2 3 11 20 24 24 20 17
75 71 68 67 66 70 78 83 87 90 91 91 90 90 90 90 88 80 69 59 51 46 44 42 43 44 44 41 35 27 18 12 9 8 8 7 7 8 12 18 24 26 25
61 64 68 72 73 74 76 80 83 86 88 89 88 89 90 91 88 79 66 53 43 36 31 27 25 26 26 25 22 15 9 5 3 5 10 14 16 17 14 14 19 25 27
39 43 50 56 61 65 68 72 77 80 80 80 82 86 90 90 86 76 64 55 45 33 23 19 17 16 16 15 14 11 7 4 4 6 11 16 20 22 19 12 12 18 19
16 20 26 33 40 48 55 61 68 73 73 72 75 81 85 86 81 73 66 58 46 32 20 15 13 11 9 9 9 8 7 6 6 8 11 13 15 17 16 10 7 10 12
3 6 11 16 22 28 37 45 54 62 66 69 72 76 78 79 77 73 68 57 42 29 20 14 10 7 5 5 5 5 5 4 5 6 7 8 7 8 7 5 3 4 5
0 1 3 6 8 11 15 24 36 47 57 66 71 73 74 75 74 70 64 52 36 23 15 11 7 5 2 1 1 2 1 1 1 2 2 2 2 2 2 1 1 1 1
0 0 0 1 2 2 3 9 22 34 44 54 60 63 65 67 65 61 52 40 27 16 9 6 4 2 1 0 0 0 0 0 0 0 0 0 0 0 0 0 0 0 0
0 0 0 1 1 1 1 5 14 23 30 36 41 42 45 48 48 44 35 24 15 9 4 2 1 1 0 0 0 0 0 0 1 0 0 0 0 0 0 0 0 0 0
0 0 0 1 2 2 1 3 7 13 16 21 24 24 25 27 28 25 19 11 6 3 2 1 0 0 0 0 0 0 0 0 0 0 0 0 0 0 0 0 0 0 0
0 0 0 0 1 2 2 2 3 5 8 11 14 15 14 14 12 10 7 4 1 1 0 0 0 0 0 0 0 0 0 0 0 0 0 0 0 0 0 0 0 0 0
0 0 0 0 0 1 1 1 2 3 4 6 7 8 6 5 4 2 1 1 0 0 0 0 0 0 0 0 0 0 0 0 0 0 0 0 0 0 0 0 0 0 0
0 0 0 0 0 0 0 1 1 1 2 3 4 4 2 1 1 0 0 0 0 0 0 0 0 0 0 0 0 0 0 0 0 0 0 0 0 0 0 0 0 0 0
0 0 0 0 0 0 0 0 0 0 1 1 2 2 1 0 0 0 0 0 0 0 0 0 0 0 0 0 0 0 0 0 0 0 0 0 0 0 0 0 0 0 0
0 0 0 0 0 0 0 0 0 0 0 0 0 0 0 0 0 0 0 0 0 0 0 0 0 0 0 0 0 0 0 0 0 0 0 0 0 0 0 0 0 0 0
0 0 0 0 0 0 0 0 0 0 0 0 0 0 0 0 0 0 0 0 0 0 0 0 0 0 0 0 0 0 0 0 0 0 0 0 0 0 0 0 0 0 0
0 0 0 0 0 0 0 0 0 0 0 0 0 0 0 0 0 0 0 0 0 0 0 0 0 0 0 0 0 0 0 0 0 0 0 0 0 0 0 0 0 0 0
0 0 0 0 0 0 0 0 0 0 0 0 0 0 0 0 0 0 0 0 0 0 0 0 0 0 0 0 0 0 0 0 0 0 0 0 0 0 0 0 0 0 0
1 0 0 0 0 0 0 0 0 0 0 0 0 0 0 0 0 0 0 0 0 0 0 0 0 0 0 0 0 0 0 0 0 0 0 0 0 0 0 0 0 0 0
1 0 0 0 0 0 0 0 0 0 0 0 0 0 0 0 0 0 0 0 0 0 0 0 0 0 0 0 0 0 0 0 0 0 0 0 0 0 0 0 0 0 0
1 0 0 0 0 0 0 0 0 0 0 0 0 0 0 0 0 0 0 0 0 0 0 0 0 0 0 0 0 0 0 0 0 0 0 0 0 0 0 0 0 0 0
1 1 0 0 0 0 0 0 0 0 0 0 0 0 0 0 0 0 0 0 0 0 0 0 0 0 0 0 0 0 0 0 0 0 0 0 0 0 0 0 0 0 0
3 2 1 1 0 0 0 0 0 0 0 0 0 0 0 0 0 0 0 0 0 0 0 0 0 0 0 0 0 0 0 0 0 0 0 0 0 0 0 0 0 0 0
6 4 2 1 0 0 0 0 0 0 0 0 0 0 0 0 0 0 0 0 0 0 0 0 0 0 0 0 0 0 0 0 0 0 0 0 0 0 0 0 0 0 0
7 4 2 1 0 0 0 0 0 0 0 0 0 0 0 0 0 0 0 0 0 0 0 0 0 0 0 0 0 0 0 0 0 0 0 0 0 0 0 0 0 0 0

GEFSMW_con_probscp_036.txt.gz
Probability
80 85 89 91 95 99 100 100 100 100 100 100 100 100 100 100 100 99 99 99 100 100 98 96 95 95 93 89 84 77 71 66 61 50 35 25 22 17 26 52 72 77 78
75 79 84 87 91 96 98 99 100 100 100 100 100 100 100 100 100 100 100 100 100 99 98 94 90 89 88 85 80 73 68 64 59 51 37 27 21 16 21 43 66 77 81
62 65 69 72 77 83 88 93 98 100 100 100 100 100 100 99 99 99 99 100 99 96 94 90 86 83 81 78 72 67 63 60 55 47 38 29 22 16 16 25 44 64 74
43 43 43 45 51 60 69 80 89 95 98 99 99 99 99 98 98 98 98 98 96 91 87 84 81 79 76 71 63 59 56 52 44 37 33 30 25 19 12 9 18 35 46
24 23 21 20 24 33 44 57 72 83 90 94 96 97 97 97 97 97 97 97 95 89 82 79 79 76 72 66 58 51 48 40 31 26 27 28 26 19 9 3 4 11 17
10 10 9 8 10 13 20 31 50 69 79 84 90 94 95 95 96 96 96 96 95 90 83 80 79 76 72 65 56 48 42 33 24 21 25 27 22 14 7 3 1 2 3
2 3 3 3 4 5 7 17 37 58 70 75 81 85 87 90 93 94 94 94 94 90 84 80 79 76 71 62 54 47 38 30 23 20 21 22 17 10 5 2 1 0 0
0 0 0 0 1 3 8 21 40 58 65 67 69 71 74 79 85 88 88 89 89 86 81 77 74 71 64 57 51 45 35 28 23 17 15 16 14 9 4 1 0 0 0
0 0 0 1 5 8 15 29 45 57 60 58 57 57 60 65 70 74 76 78 78 77 75 71 65 60 53 49 46 40 31 25 20 15 13 12 11 7 3 1 0 0 0
0 0 1 3 9 15 21 30 41 46 49 49 48 47 48 50 53 55 57 60 60 60 58 54 48 43 38 35 34 30 23 17 14 11 10 8 7 5 3 1 0 0 0
0 1 3 6 12 18 23 28 32 35 38 39 39 38 38 39 39 37 37 39 39 37 34 32 28 24 20 18 16 14 12 9 7 6 6 4 4 4 3 1 0 0 0
1 3 7 11 15 20 25 27 28 30 30 27 26 28 29 28 24 21 20 20 19 16 14 14 13 10 6 5 5 5 5 4 4 3 3 2 1 2 2 1 0 0 0
5 9 17 22 26 29 32 30 27 26 24 18 15 17 18 17 12 9 8 7 6 5 3 4 4 3 1 1 3 4 2 2 2 2 1 1 0 1 1 0 0 0 0
7 16 29 35 38 41 42 37 29 24 20 15 10 9 10 9 6 4 3 2 1 1 0 0 0 0 0 0 2 2 1 1 1 0 0 0 0 0 0 0 0 0 0
5 14 27 34 39 45 46 42 34 27 21 14 8 6 6 5 3 1 1 1 0 0 0 0 0 0 0 0 0 0 0 0 0 0 0 0 0 0 0 0 0 0 0
3 9 18 25 34 43 46 45 39 32 24 15 6 4 3 3 2 1 0 0 0 0 0 0 0 0 0 0 0 0 0 0 0 0 0 0 0 0 0 0 0 0 0
3 9 15 24 36 45 49 49 43 35 25 14 5 2 1 1 1 1 0 0 0 0 0 0 0 0 0 0 0 0 0 0 0 0 0 0 0 0 0 0 0 0 0
5 12 19 26 37 48 52 50 42 33 23 11 3 0 0 0 0 0 0 0 0 0 0 0 0 0 0 0 0 0 0 0 0 0 0 0 0 0 0 0 0 0 0
11 16 21 25 39 52 55 49 39 29 19 8 1 0 0 0 0 0 0 0 0 0 0 0 0 0 0 0 0 0 0 0 0 0 0 0 0 0 0 0 0 0 0
18 22 27 38 55 68 66 53 36 25 16 7 1 0 0 0 0 0 0 0 0 0 0 0 0 0 0 0 0 0 0 0 0 0 0 0 0 0 0 0 0 0 0
16 22 35 56 77 85 80 64 41 25 16 8 2 0 0 0 0 0 0 0 0 0 0 0 0 0 0 0 0 0 0 0 0 0 0 0 0 0 0 0 0 0 0
7 14 32 59 82 91 88 75 53 32 18 11 4 1 0 0 0 0 0 0 0 0 0 0 0 0 0 0 0 0 0 0 0 0 0 0 0 0 0 0 0 0 0
2 6 20 44 69 83 85 78 61 38 21 12 6 1 0 0 0 0 0 0 0 0 0 0 0 0 0 0 0 0 0 0 0 0 0 0 0 0 0 0 0 0 0
2 3 10 26 47 63 71 70 60 41 23 12 5 1 0 0 0 0 0 0 0 0 0 0 0 0 0 0 0 0 0 0 0 0 0 0 0 0 0 0 0 0 0
1 1 5 13 26 39 49 55 53 41 25 13 5 2 1 0 0 0 0 0 0 0 0 0 0 0 0 0 0 0 0 0 0 0 0 0 0 0 0 0 0 0 0
0 0 2 6 15 25 35 45 49 42 27 14 7 3 2 1 0 0 0 0 0 0 0 0 0 0 0 0 0 0 0 0 0 0 0 0 0 0 0 0 0 0 0

GEFSMW_con_probscp_042.txt.gz
Probability
81 78 74 72 74 77 79 80 80 79 80 82 87 91 93 93 88 79 71 70 76 84 90 90 86 82 76 68 57 46 36 26 19 16 12 6 2 1 1 1 1 2 3
71 67 61 58 59 62 65 68 69 70 72 77 83 88 89 90 87 82 75 73 77 82 85 85 82 77 70 62 52 43 35 25 17 14 12 7 3 1 1 1 1 2 3
50 46 41 39 39 40 43 46 48 49 52 60 69 75 77 78 80 79 75 75 78 80 79 79 76 68 63 56 46 37 30 22 15 13 12 9 4 1 1 1 1 2 3
31 28 26 28 28 26 27 30 31 32 34 40 48 55 58 60 63 66 67 69 74 76 76 75 70 63 58 52 44 34 26 20 15 13 12 9 4 2 1 0 0 1 2
17 17 18 21 22 19 21 24 26 26 28 30 33 37 40 42 44 47 51 56 61 66 68 68 65 59 53 47 42 33 25 19 15 12 9 6 2 2 1 0 0 0 1
10 10 12 15 18 19 20 24 26 26 26 26 26 25 25 25 27 30 34 39 45 50 53 56 57 53 47 43 37 29 21 17 14 10 6 2 1 1 1 0 0 0 0
8 7 8 12 16 18 20 23 26 25 23 22 20 17 14 12 12 16 21 26 31 35 38 41 43 42 40 38 31 22 16 13 11 7 2 0 0 0 0 0 0 0 0
5 5 6 9 13 15 17 21 23 23 21 18 14 11 8 6 6 8 11 15 19 21 22 25 27 29 29 28 23 16 12 9 6 3 1 0 0 0 0 0 0 0 0
2 2 2 4 8 11 13 16 18 19 18 15 13 11 7 5 5 5 5 8 10 10 10 12 15 16 15 14 13 11 8 5 2 1 0 0 0 0 0 0 0 0 0
0 0 0 1 3 5 8 10 13 14 13 13 13 12 8 6 4 3 1 3 5 5 5 6 7 7 6 5 5 5 4 3 1 0 0 0 0 0 0 0 0 0 0
0 0 0 0 0 1 3 6 9 11 11 13 14 12 8 5 2 1 0 0 2 3 4 4 3 2 2 2 2 2 1 1 1 0 0 0 0 0 0 0 0 0 0
0 0 0 0 0 0 2 3 6 9 10 11 12 10 7 4 1 0 0 0 1 2 3 3 2 1 0 0 0 0 0 0 0 0 0 0 0 0 0 0 0 0 0
0 0 0 0 0 0 1 1 2 4 6 6 7 7 5 3 1 0 0 0 0 1 2 1 1 0 0 0 0 0 0 0 0 0 0 0 0 0 0 0 0 0 0
0 0 0 0 0 0 0 0 0 1 2 3 3 3 3 1 0 0 0 0 0 0 0 0 0 0 0 0 0 0 0 0 0 0 0 0 0 0 0 0 0 0 0
0 0 0 0 0 0 0 0 0 0 1 1 1 1 1 0 0 0 0 0 0 0 0 0 0 0 0 0 0 0 0 0 0 0 0 0 0 0 0 0 0 0 0
0 0 0 0 0 0 0 0 0 0 0 1 1 0 0 0 0 0 0 0 0 0 0 0 0 0 0 0 0 0 0 0 0 0 0 0 0 0 0 0 0 0 0
0 0 0 0 0 0 0 0 0 0 0 1 1 0 0 0 0 0 0 0 0 0 0 0 0 0 0 0 0 0 0 0 0 0 0 0 0 0 0 0 0 0 0
0 0 0 0 0 0 0 0 0 0 1 1 1 0 0 0 0 0 0 0 0 0 0 0 0 0 0 0 0 0 0 0 0 0 0 0 0 0 0 0 0 0 0
0 0 0 0 0 0 0 0 0 1 1 1 1 0 0 0 0 0 0 0 0 0 0 0 0 0 0 0 0 0 0 0 0 0 0 0 0 0 0 0 0 0 0
0 0 0 0 0 0 0 0 0 1 2 2 1 0 0 0 0 0 0 0 0 0 0 0 0 0 0 0 0 0 0 0 0 0 0 0 0 0 0 0 0 0 0
0 0 0 0 0 0 0 0 0 1 2 2 1 0 0 0 0 0 0 0 0 0 0 0 0 0 0 0 0 0 0 0 0 0 0 0 0 0 0 0 0 0 0
0 0 0 0 0 0 0 0 0 0 1 1 2 1 0 0 0 0 0 0 0 0 0 0 0 0 0 0 0 0 0 0 0 0 0 0 0 0 0 0 0 0 0
0 0 0 0 0 0 0 0 0 0 0 1 2 1 0 0 0 0 0 0 0 0 0 0 0 0 0 0 0 0 0 0 0 0 0 0 0 0 0 0 0 0 0
0 0 0 0 0 0 0 0 0 0 0 0 1 1 0 0 0 0 0 0 0 0 0 0 0 0 0 0 0 0 0 0 0 0 0 0 0 0 0 0 0 0 0
0 0 0 0 0 0 0 0 1 1 0 0 0 0 0 0 0 0 0 0 0 0 0 0 0 0 0 0 0 0 0 0 0 0 0 0 0 0 0 0 0 0 0
0 0 0 0 0 0 0 1 2 2 1 0 0 0 0 0 0 0 0 0 0 0 0 0 0 0 0 0 0 0 0 0 0 0 0 0 0 0 0 0 0 0 0

GEFSMW_con_probscp_048.txt.gz
Probability
52 50 44 36 31 33 34 33 32 34 37 40 44 48 52 55 54 51 49 49 52 58 65 69 74 77 76 73 67 58 45 35 29 23 15 9 7 7 8 9 9 6 5
41 38 32 25 21 20 21 22 24 24 26 31 35 38 40 42 42 41 39 38 40 45 51 58 66 71 72 69 62 54 44 34 28 22 15 9 7 6 7 8 8 5 5
23 20 15 10 7 7 7 9 11 11 12 18 23 23 22 22 22 22 22 22 24 27 32 41 51 59 64 62 56 49 42 33 26 20 15 11 8 6 5 5 5 3 3
9 7 4 2 1 1 2 3 4 5 6 10 12 11 9 8 8 8 9 9 11 14 19 27 36 44 50 51 49 46 42 34 27 20 14 12 9 6 2 2 1 1 1
3 2 1 0 0 1 1 2 4 5 6 8 8 5 3 2 2 2 2 2 4 6 10 15 21 26 31 34 37 41 41 36 28 20 13 10 8 6 3 1 0 0 0
1 0 0 0 1 2 3 5 7 7 8 10 9 5 2 1 0 0 0 0 0 1 3 7 9 12 15 19 23 29 34 31 25 18 11 7 7 6 4 1 0 0 0
0 0 0 0 1 2 4 6 7 8 8 10 9 6 3 1 0 0 0 0 0 0 1 3 5 7 8 9 11 17 21 22 18 12 7 5 5 6 4 2 1 0 0
0 0 0 0 0 1 2 3 4 4 6 8 8 5 2 1 0 0 0 0 0 0 0 1 3 4 5 5 6 9 13 14 11 7 4 4 4 5 4 2 1 0 0
0 0 0 0 0 0 0 1 1 1 3 5 6 4 2 1 1 0 0 0 0 0 0 0 1 1 2 3 4 7 9 9 7 4 2 2 3 3 2 1 0 0 0
0 0 0 0 0 0 0 0 0 0 1 2 4 4 3 2 1 0 0 0 0 0 0 0 0 0 1 2 3 5 6 6 5 2 1 0 1 1 0 0 0 0 0
0 0 0 0 0 0 0 0 0 0 0 0 1 2 2 2 1 0 0 0 0 0 0 0 0 0 1 2 2 2 2 2 2 1 0 0 0 0 0 0 0 0 0
0 0 0 0 0 0 0 0 0 0 0 0 0 0 1 1 0 0 0 0 0 0 0 0 0 0 0 1 1 0 0 0 0 0 0 0 0 0 0 0 0 0 0
0 0 0 0 0 0 0 0 0 0 0 0 0 0 0 0 0 0 0 0 0 0 0 0 0 0 0 0 0 0 0 0 0 0 0 0 0 0 0 0 0 0 0
0 0 0 0 0 0 0 0 0 0 0 0 0 0 0 0 0 0 0 0 0 0 0 0 0 0 0 0 0 0 0 0 0 0 0 0 0 0 0 0 0 0 0
0 0 0 0 0 0 0 0 0 0 0 0 0 0 0 0 0 0 0 0 0 0 0 0 0 0 0 0 0 0 0 0 0 0 0 0 0 0 0 0 0 0 0
0 0 0 0 0 0 0 0 0 0 0 0 0 0 0 0 0 0 0 0 0 0 0 0 0 0 0 0 0 0 0 0 0 0 0 0 0 0 0 0 0 0 0
0 0 0 0 0 0 0 0 0 0 0 0 0 0 0 0 0 0 0 0 0 0 0 0 0 0 0 0 0 0 0 0 0 0 0 0 0 0 0 0 0 0 0
0 0 0 0 0 0 0 0 0 0 0 0 0 0 0 0 0 0 0 0 0 0 0 0 0 0 0 0 0 0 0 0 0 0 0 0 0 0 0 0 0 0 0
0 0 0 0 0 0 0 0 0 0 0 0 0 0 0 0 0 0 0 0 0 0 0 0 0 0 0 0 0 0 0 0 0 0 0 0 0 0 0 0 0 0 0
0 0 0 0 0 0 0 0 0 0 0 0 0 0 0 0 0 0 0 0 0 0 0 0 0 0 0 0 0 0 0 0 0 0 0 0 0 0 0 0 0 0 0
0 0 0 0 0 0 0 0 0 0 0 0 0 0 0 0 0 0 0 0 0 0 0 0 0 0 0 0 0 0 0 0 0 0 0 0 0 0 0 0 0 0 0
0 0 0 0 0 0 0 0 0 0 0 0 0 0 0 0 0 0 0 0 0 0 0 0 0 0 0 0 0 0 0 0 0 0 0 0 0 0 0 0 0 0 0
0 0 0 0 0 0 0 0 0 0 0 0 0 0 0 0 0 0 0 0 0 0 0 0 0 0 0 0 0 0 0 0 0 0 0 0 0 0 0 0 0 0 0
0 0 0 0 0 0 0 0 0 0 0 0 0 0 0 0 0 0 0 0 0 0 0 0 0 0 0 0 0 0 0 0 0 0 0 0 0 0 0 0 0 0 0
0 0 0 0 0 0 0 0 0 0 0 0 0 0 0 0 0 0 0 0 0 0 0 0 0 0 0 0 0 0 0 0 0 0 0 0 0 0 0 0 0 0 0
0 0 0 0 0 0 0 0 0 0 0 0 0 0 0 0 0 0 0 0 0 0 0 0 0 0 0 0 0 0 0 0 0 0 0 0 0 0 0 0 0 0 0

GEFSMW_con_probscp_054.txt.gz
Probability
70 68 65 63 61 60 58 50 41 36 35 34 31 28 24 16 10 9 11 13 15 19 27 32 34 36 38 41 48 57 66 72 73 70 62 54 47 42 38 36 35 31 26
69 70 70 69 67 62 55 47 37 29 26 25 23 22 18 10 5 6 7 8 10 14 20 26 29 30 33 36 42 53 63 68 71 72 66 55 46 42 39 38 37 33 30
70 70 71 69 64 55 46 37 29 22 19 17 14 12 8 4 1 1 2 3 5 7 11 16 20 23 25 27 33 44 55 61 67 71 71 63 51 44 39 38 39 38 35
67 65 63 57 48 39 31 27 24 22 20 18 14 9 5 2 0 0 0 1 1 3 5 8 12 16 18 21 25 33 45 54 59 65 72 70 62 53 43 38 38 39 37
52 50 45 39 32 24 21 22 24 28 29 27 25 21 13 7 4 2 1 0 0 1 2 3 7 10 14 18 22 28 36 43 49 57 66 70 68 61 51 43 43 42 39
30 29 25 23 21 19 19 22 29 38 43 43 43 40 31 22 16 11 6 4 3 2 2 2 5 8 12 17 21 25 29 34 42 48 55 62 63 60 56 52 51 50 48
14 13 12 12 14 15 19 26 37 50 58 59 59 56 48 38 31 24 18 13 7 4 3 3 4 6 10 13 18 22 25 28 33 37 44 52 56 56 58 59 58 57 55
7 6 6 7 9 12 17 27 42 54 61 62 62 61 57 49 42 39 34 27 18 10 6 5 4 4 4 7 13 19 21 23 25 26 32 40 47 53 56 59 62 61 57
2 2 3 5 6 9 12 20 32 40 45 48 51 54 56 55 52 50 48 42 34 23 14 10 8 6 4 4 9 14 15 17 19 20 23 29 37 45 47 52 61 64 60
0 1 2 3 4 5 7 10 15 19 22 26 31 37 44 51 56 58 57 55 49 40 28 18 13 11 8 6 7 9 9 10 13 15 15 18 27 36 41 46 55 61 62
0 0 1 1 1 2 3 4 4 6 7 10 14 20 27 37 47 54 56 58 57 49 37 25 17 14 12 8 6 6 5 5 7 9 8 10 18 30 38 43 48 53 54
0 0 0 0 0 1 1 1 1 1 2 3 5 9 14 22 32 40 45 50 54 48 36 27 21 16 12 9 6 5 4 3 3 4 5 8 15 24 32 37 38 39 39
0 0 0 0 0 0 0 0 0 0 0 0 2 4 7 12 19 25 30 36 42 40 31 26 23 18 13 9 6 4 3 3 3 4 6 10 14 18 24 27 28 28 25
0 0 0 0 0 0 0 0 0 0 0 0 0 1 3 5 9 14 20 25 30 31 26 23 21 17 12 8 5 3 3 3 3 3 4 7 10 11 13 17 20 19 17
0 0 0 0 0 0 0 0 0 0 0 0 0 0 1 1 3 6 12 17 20 21 20 17 15 13 9 6 3 3 3 3 3 2 2 2 3 3 4 7 11 11 9
0 0 0 0 0 0 0 0 0 0 0 0 0 0 0 0 0 2 6 10 11 13 13 11 9 8 5 3 1 1 2 3 2 1 0 0 0 0 0 2 3 4 4
0 0 0 0 0 0 0 0 0 0 0 0 0 0 0 0 0 0 2 4 7 9 10 9 6 4 3 1 0 0 1 2 1 0 0 0 0 0 0 0 0 0 1
0 0 0 0 0 0 0 0 0 0 0 0 0 0 0 0 0 0 1 2 5 7 9 8 5 3 1 0 0 0 0 0 0 0 0 0 0 0 0 0 0 0 0
0 0 0 0 0 0 0 0 0 0 0 0 0 0 0 0 0 0 0 1 3 4 5 6 4 3 1 0 0 0 0 0 0 0 0 0 0 0 0 0 0 0 0
0 0 0 0 0 0 0 0 0 0 0 0 0 0 0 0 0 0 0 0 1 1 1 2 2 2 2 1 0 0 0 0 0 0 0 0 0 0 0 0 0 0 0
0 0 0 0 0 1 0 0 0 0 0 0 0 0 0 0 0 0 0 0 0 0 0 0 1 1 2 1 0 0 0 0 0 0 0 0 0 0 0 0 0 0 0
0 0 0 0 1 2 1 0 0 0 0 0 0 0 0 0 0 0 0 0 0 0 0 0 0 1 1 1 0 0 0 0 0 0 0 0 0 0 0 0 0 0 0
0 0 0 0 0 1 0 0 0 0 0 0 0 0 0 0 0 0 0 0 0 0 0 0 0 0 0 0 0 0 0 0 0 0 0 0 0 0 0 0 0 0 0
0 0 0 0 0 0 0 0 0 0 0 0 0 0 0 0 0 0 0 0 0 0 0 0 0 0 0 0 0 0 0 0 0 0 0 0 0 0 0 0 0 0 0
0 0 0 0 0 0 0 0 0 0 0 0 0 0 0 0 0 0 0 0 0 0 0 0 0 0 0 0 0 0 0 0 0 0 0 0 0 0 0 0 0 0 0
0 0 0 0 0 0 0 0 0 0 0 0 0 0 0 0 0 0 0 0 0 0 0 0 0 0 0 0 0 0 0 0 0 0 0 0 0 0 0 0 0 0 0

GEFSMW_con_probscp_060.txt.gz
Probability
80 81 80 82 91 96 96 95 92 89 87 84 78 75 69 55 50 56 56 42 30 27 24 25 31 31 25 25 30 35 35 38 43 43 37 33 37 42 47 49 46 40 36
77 81 81 82 88 92 92 90 88 85 84 81 75 70 64 52 46 52 52 39 26 20 18 20 22 23 20 20 25 30 31 33 40 42 35 27 29 35 41 46 47 43 41
72 76 80 81 83 84 84 84 84 81 79 77 71 66 61 50 45 51 52 42 26 15 13 14 15 16 14 14 17 21 24 29 34 36 33 27 24 26 32 39 44 46 46
64 69 74 78 78 77 79 83 84 82 80 78 75 72 66 59 55 57 58 49 35 23 19 19 19 19 15 12 12 15 20 25 27 29 32 31 26 22 21 25 31 38 42
58 62 66 69 70 71 75 81 85 85 84 84 84 82 78 72 69 68 66 58 46 38 33 31 30 27 21 15 15 17 20 22 23 25 29 29 26 22 16 13 16 22 28
50 51 53 55 55 56 63 72 79 83 85 87 88 88 86 84 81 78 74 68 60 55 51 49 46 39 29 24 25 26 25 21 21 23 25 25 24 22 18 11 8 11 14
38 37 36 36 36 37 43 52 60 67 72 77 81 85 87 88 86 83 81 77 72 70 69 68 64 53 40 34 32 33 30 25 23 24 23 23 23 21 19 14 8 8 9
25 24 21 20 19 18 21 27 35 41 48 53 60 66 71 73 76 79 81 82 79 78 80 82 79 69 53 43 39 36 32 30 29 25 23 23 23 23 22 18 12 10 10
12 11 11 9 7 5 6 10 15 21 24 28 32 38 44 48 53 62 68 74 77 76 77 81 82 77 66 56 48 41 37 37 37 32 27 26 25 26 26 24 20 15 11
3 4 4 3 2 1 1 3 6 8 10 10 13 16 20 25 31 37 43 51 57 60 62 67 73 75 73 66 57 46 40 40 42 38 29 25 25 25 25 26 26 19 13
2 2 2 2 2 2 2 2 2 3 2 3 5 6 7 10 14 17 21 27 32 36 41 48 56 63 67 67 60 46 35 36 40 36 26 20 19 20 22 25 25 20 16
1 1 1 1 1 1 1 1 1 1 0 0 1 1 2 2 4 5 8 11 15 19 24 31 39 46 53 59 55 42 31 30 33 30 23 17 15 18 21 21 20 17 15
0 0 0 0 0 0 0 0 0 0 0 0 0 0 0 0 0 1 2 3 6 10 13 19 25 31 37 43 43 36 30 28 28 26 23 20 20 21 19 16 16 14 11
0 0 0 0 0 0 0 0 0 0 0 0 0 1 2 2 0 0 0 0 1 3 6 8 13 19 22 25 26 25 25 25 24 23 22 21 20 18 14 12 13 11 9
0 0 0 0 0 0 1 2 3 4 3 1 1 3 5 5 3 2 1 0 0 0 1 2 4 8 11 12 12 12 14 18 20 19 17 14 11 10 8 7 8 7 5
0 0 0 1 2 3 5 6 9 12 10 5 2 3 6 7 5 4 2 1 1 1 1 1 1 2 4 4 3 4 7 12 15 14 10 6 3 2 2 2 2 2 2
0 0 0 1 3 5 8 9 9 12 12 7 4 3 4 5 4 3 2 2 2 2 2 1 1 1 1 0 0 1 3 9 11 9 5 3 1 1 0 0 0 0 1
0 0 0 1 2 4 6 7 5 5 6 6 4 4 3 2 1 1 1 2 3 2 2 1 0 0 0 0 0 0 2 6 7 5 3 2 2 1 0 0 0 0 0
0 0 0 0 2 6 8 7 4 3 3 4 4 4 2 1 0 0 0 1 1 1 1 0 0 0 0 0 0 0 2 4 4 3 2 1 1 1 0 0 0 0 0
0 0 1 3 9 15 17 11 5 3 3 3 2 2 1 0 0 0 0 0 0 0 0 0 0 0 0 0 0 0 1 2 2 1 1 0 0 0 0 0 0 0 0
0 1 3 9 17 24 23 14 5 2 2 1 1 1 0 0 0 0 0 0 0 0 0 0 0 0 0 0 0 0 1 1 1 0 0 0 0 0 0 0 0 0 0
0 1 4 11 20 25 21 13 7 4 2 1 0 0 0 0 0 0 0 0 0 0 0 0 0 0 0 0 0 0 0 0 0 0 0 0 0 0 0 0 0 0 0
1 1 2 7 13 16 14 9 7 6 3 1 0 0 0 0 0 0 0 0 0 0 0 0 0 0 0 0 0 0 0 0 0 0 0 0 0 0 0 0 0 0 0
0 0 1 2 4 7 6 5 5 5 2 1 0 0 0 0 0 0 0 0 0 0 0 0 0 0 0 0 0 0 0 0 0 0 0 0 0 0 0 0 0 0 0
0 0 0 0 1 2 3 2 2 2 1 0 0 0 0 0 0 0 0 0 0 0 0 0 0 0 0 0 0 0 0 0 0 0 0 0 0 0 0 0 0 0 0
0 0 0 0 0 1 1 1 1 0 0 0 0 0 0 0 0 0 0 0 0 0 0 0 0 0 0 0 0 0 0 0 0 0 0 0 0 0 0 0 0 0 0

GEFSMW_con_probscp_066.txt.gz
Probability
56 54 53 53 47 38 35 38 38 35 35 38 40 40 37 29 24 21 18 15 13 13 13 10 6 4 3 1 0 0 0 0 0 0 0 0 0 0 0 0 0 1 2
45 44 43 42 37 31 29 28 28 28 28 31 33 33 31 26 20 17 13 10 10 11 11 8 6 5 3 1 0 0 0 0 0 0 0 0 0 0 0 0 0 1 2
31 30 29 27 25 22 21 18 17 18 21 24 26 25 25 24 20 15 11 8 6 7 8 7 6 4 3 1 0 0 0 0 0 0 0 0 0 0 0 0 0 0 1
16 17 16 15 14 14 14 13 11 12 14 18 20 20 22 24 21 17 14 10 6 5 7 7 6 4 2 1 1 1 1 0 0 0 0 0 0 0 0 0 0 0 0
5 6 6 6 6 6 7 8 8 7 8 10 13 15 17 17 17 16 15 12 8 7 8 8 6 4 2 1 1 2 2 1 1 0 0 0 0 0 0 0 0 0 0
1 1 1 1 1 1 2 3 4 3 3 4 7 9 9 9 10 11 11 9 7 6 7 8 6 4 3 2 2 3 4 3 2 1 0 0 0 0 0 0 0 0 0
0 0 0 0 0 0 0 1 1 1 0 1 3 3 4 5 6 5 5 5 3 2 3 4 4 4 4 4 3 4 5 5 4 3 1 0 0 0 0 0 0 0 0
0 0 0 0 0 0 0 0 0 0 0 0 0 0 1 2 2 2 1 1 1 0 0 1 2 3 4 4 3 4 5 5 5 5 3 1 0 0 0 0 0 0 0
0 0 0 0 0 0 0 0 0 0 0 0 0 0 0 0 1 1 0 0 0 0 0 0 0 1 2 2 2 2 3 3 4 4 3 2 0 0 0 0 0 0 0
0 0 0 0 0 0 0 0 0 0 0 0 0 0 0 0 1 1 0 0 0 0 0 0 0 0 1 1 0 1 1 2 1 2 2 1 0 0 0 0 0 0 0
0 0 0 0 0 0 0 0 0 0 0 0 0 0 0 0 0 0 0 0 0 0 0 0 0 0 0 0 0 0 0 0 0 0 0 0 0 0 0 0 0 0 0
0 0 0 0 0 0 0 0 0 0 0 0 0 0 0 0 0 0 0 0 0 0 0 0 0 0 0 0 0 0 0 0 0 0 0 0 0 0 0 1 0 0 0
0 0 0 0 0 0 0 0 0 0 0 0 0 0 0 0 0 0 0 0 0 0 0 0 0 0 0 0 0 0 1 0 0 0 0 0 0 0 0 0 0 0 0
0 0 0 0 0 0 0 0 0 0 0 0 0 0 0 0 0 0 0 0 0 0 0 0 0 0 0 0 0 0 0 0 0 0 0 0 0 0 0 0 0 0 0
0 0 0 0 0 0 0 0 0 0 0 0 0 0 0 0 0 0 0 0 0 0 0 0 0 0 0 0 0 0 0 0 0 0 0 0 0 0 0 0 0 0 0
0 0 0 0 0 0 0 0 0 0 0 0 0 0 0 0 0 0 0 0 0 0 0 0 0 0 0 0 0 0 0 0 0 0 0 0 0 0 0 0 0 0 0
0 0 0 0 0 0 0 0 0 0 0 0 0 0 0 0 0 0 0 0 0 0 0 0 0 0 0 0 0 0 0 0 0 0 0 0 0 0 0 0 0 0 0
0 0 0 0 0 0 0 0 0 0 0 0 0 0 0 0 0 0 0 0 0 0 0 0 0 0 0 0 0 0 0 0 0 0 0 0 0 0 0 0 0 0 0
0 0 0 0 0 0 0 0 0 0 0 0 0 0 0 0 0 0 0 0 0 0 0 0 0 0 0 0 0 0 0 0 0 0 0 0 0 0 0 0 0 0 0
0 0 0 0 0 0 0 0 0 0 0 0 0 0 0 0 0 0 0 0 0 0 0 0 0 0 0 0 0 0 0 0 0 0 0 0 0 0 0 0 0 0 0
0 0 0 0 0 0 0 0 0 0 0 0 0 0 0 0 0 0 0 0 0 0 0 0 0 0 0 0 0 0 0 0 0 0 0 0 0 0 0 0 0 0 0
0 0 0 0 0 0 0 0 0 0 0 0 0 0 0 0 0 0 0 0 0 0 0 0 0 0 0 0 0 0 0 0 0 0 0 0 0 0 0 0 0 0 0
0 0 0 0 0 0 0 0 0 0 0 0 0 0 0 0 0 0 0 0 0 0 0 0 0 0 0 0 0 0 0 0 0 0 0 0 0 0 0 0 0 0 0
0 0 0 0 0 0 0 0 0 0 0 0 0 0 0 0 0 0 0 0 0 0 0 0 0 0 0 0 0 0 0 0 0 0 0 0 0 0 0 0 0 0 0
0 0 0 0 0 0 0 0 0 0 0 0 0 0 0 0 0 0 0 0 0 0 0 0 0 0 0 0 0 0 0 0 0 0 0 0 0 0 0 0 0 0 0
0 0 0 0 0 0 0 0 0 0 0 0 0 0 0 0 0 0 0 0 0 0 0 0 0 0 0 0 0 0 0 0 0 0 0 0 0 0 0 0 0 0 0